This is the latest recevied weather packets stored in our database for station/object IW2NIA-3. If no packets are shown the sender has not sent any weather packets the latest 10 day(s).
| Time | Temp. | Humidity | Pressure | Rain* | Wind** | Luminosity | Snow |
|---|---|---|---|---|---|---|---|
| 1778090622 | 12.22° C | 90% | 1008.9 hPa | 5.33 mm | - | - | - |
| 1778089714 | 12.78° C | 89% | 1008 hPa | 3.56 mm | - | - | - |
| 1778088823 | 12.78° C | 89% | 1007.6 hPa | 0 mm | - | - | - |
| 1778087916 | 12.78° C | 90% | 1007.4 hPa | 0 mm | - | - | - |
| 1778087009 | 13.33° C | 90% | 1007.2 hPa | 0 mm | - | - | - |
| 1778086118 | 13.33° C | 90% | 1006.9 hPa | 0 mm | - | - | - |
| 1778085212 | 13.33° C | 90% | 1006.9 hPa | 0 mm | - | - | - |
| 1778084308 | 13.33° C | 90% | 1006.6 hPa | 0 mm | - | - | - |
| 1778083422 | 13.89° C | 91% | 1006.1 hPa | 0 mm | - | - | - |
| 1778082519 | 13.89° C | 93% | 1005.7 hPa | 0 mm | - | - | - |
| 1778081619 | 13.33° C | 94% | 1006.3 hPa | 0 mm | - | - | - |
| 1778080719 | 13.33° C | 94% | 1006.5 hPa | 3.81 mm | - | - | - |
| 1778079823 | 12.78° C | 94% | 1006.7 hPa | 10.41 mm | - | - | - |
| 1778078915 | 13.33° C | 94% | 1006.7 hPa | 14.48 mm | - | - | - |
| 1778078009 | 12.78° C | 93% | 1006.6 hPa | 14.99 mm | - | - | - |
| 1778077122 | 12.78° C | 93% | 1007 hPa | 11.68 mm | - | - | - |
| 1778076222 | 13.89° C | 93% | 1006.9 hPa | 11.94 mm | - | - | - |
| 1778075317 | 13.33° C | 93% | 1007.1 hPa | 10.67 mm | - | - | - |
| 1778074414 | 13.33° C | 93% | 1006.8 hPa | 10.67 mm | - | - | - |
| 1778073511 | 13.33° C | 92% | 1006.9 hPa | 10.41 mm | - | - | - |
| 1778072605 | 15° C | 92% | 1007 hPa | 3.81 mm | - | - | - |
| 1778071724 | 15.56° C | 91% | 1006.6 hPa | 1.27 mm | - | - | - |
| 1778070819 | 16.11° C | 90% | 1006.7 hPa | 0.25 mm | - | - | - |
| 1778069919 | 16.11° C | 89% | 1006.6 hPa | 0.51 mm | - | - | - |
| 1778069015 | 16.11° C | 90% | 1006.5 hPa | 0.25 mm | - | - | - |
* Rain latest hour (hover to see other rain measurements)
** Current wind speed in m/s (hover to see current wind gust speed)